Location: Pedro
(43.9050°N, 104.3408°W)
Time: 11:50:22
(UTC+00:00)

CAS-4B - Visible Passes

Search period start: 05 December 2023 00:00
Search period end: 15 December 2023 00:00
Orbit: 494 x 508 km, 43.0° (Epoch: 05 December)

Date Brightness Start Highest point End Pass type
(mag) Time Alt. Az. Time Alt. Az. Time Alt. Az.
05 Dec ? 00:23:52 10° W 00:27:44 80° S 00:30:38 17° E visible
05 Dec ? 02:03:14 10° W 02:05:16 27° WSW 02:05:16 27° WSW visible
06 Dec ? 00:02:02 10° W 00:05:55 79° S 00:09:46 10° E visible
06 Dec ? 01:41:25 10° W 01:44:38 41° SW 01:44:38 41° SW visible
07 Dec ? 01:19:34 10° W 01:23:14 41° SSW 01:24:06 35° SSE visible
08 Dec ? 00:57:43 10° W 01:01:21 40° SSW 01:03:41 19° SE visible
09 Dec ? 00:35:50 10° W 00:39:27 38° SSW 00:43:02 10° SE visible
09 Dec ? 02:17:25 10° SW 02:18:05 10° SW 02:18:05 10° SW visible
10 Dec ? 00:13:55 10° W 00:17:31 37° SSW 00:21:05 10° SE visible
10 Dec ? 23:51:59 10° W 23:55:33 35° SSW 23:59:06 10° SE visible
